{"data":{"norad_id":66847,"intl_designator":"2025-280AC","name":"STARLINK-36061","alt_names":[],"object_type":"PAYLOAD","status":"ACTIVE","operator":null,"country":"US","launch_date":"2025-12-02","launch_site_code":"AFWTR","launch_vehicle":null,"mission":null,"orbit_class":"UNKNOWN","rcs_meters":null,"size_class":null,"mass_kg":null,"dimensions":null,"purposes":["comms"],"wikipedia_slug":null,"has_3d_model":false,"image_url":null,"decayed_at":null,"tle_current":{"epoch":"2026-09-20T05:46:30.888192Z","epoch_age_seconds":106478,"freshness":"FRESH","line1":"1 66847U 25280AC  26263.24063528  .00004282  00000+0  36639-3 0  9992","line2":"2 66847  70.0009 204.0853 0002898 270.8188  89.2639 14.98338111 45210","mean_motion":14.98338111,"eccentricity":0.0002898,"inclination_deg":70.0009,"raan_deg":204.0853,"arg_perigee_deg":270.8188,"mean_anomaly_deg":89.2639,"bstar":0.00036639,"rev_number":4521,"period_min":96.106478866705,"perigee_km":570.01664982825,"apogee_km":574.04496709004,"semimajor_km":6950.1678084591,"source":"CELESTRAK","updated_at":"2026-09-21T09:00:36.025130Z"}}}